Regional Weather Roundup
Issued by NWS

Home | Current Version | Previous Version | Graphics & Text | Print | Product List | Glossary On
Versions: 1 2 3 4 5 6 7 8 9 10 11 12 13 14 15 16 17 18 19 20 21 22 23 24 25 26 27 28 29 30 31 32 33 34 35 36 37 38 39 40 41 42 43 44 45 46 47 48 49 50
000
ASUS43 KMPX 260801
RWRMN
WEATHER ROUNDUP FOR MINNESOTA
NATIONAL WEATHER SERVICE TWIN CITIES/CHANHASSEN MN
300 AM CDT MON SEP 26 2016


NOTE: "FAIR" INDICATES FEW OR NO CLOUDS BELOW 12,000 FEET WITH NO
SIGNIFICANT WEATHER AND/OR OBSTRUCTIONS TO VISIBILITY. N/A MEANS
CURRENT SKY AND/OR WEATHER CONDITIONS ARE NOT AVAILABLE.

MNZ060>063-068>070-260900-
   Twin Cities Metro

CITY           SKY/WX    TMP DP  RH WIND       PRES   REMARKS
TWIN CITIES    PTCLDY    54  43  66 W8        29.95F
ST PAUL        PTCLDY    54  43  66 W12       29.94F
CRYSTAL        CLOUDY    53  42  66 W10       29.93F
BLAINE         MOCLDY    55  45  67 W10G16    29.93F
LAKEVILLE      PTCLDY    50  43  76 W7        29.97F
EDEN PRAIRIE   CLEAR     51  43  74 SW8       29.95F
LAKEVILLE      PTCLDY    50  43  76 W7        29.97F
SOUTH ST PAUL  CLEAR     53  44  72 W9        29.95S
LAKE ELMO      FAIR      54  45  71 W13       29.94F
$$
MNZ001>005-007-008-013>017-022>024-027-028-260900-
   Northwest Minnesota

CITY           SKY/WX    TMP DP  RH WIND       PRES   REMARKS
BEMIDJI        CLOUDY    48  43  82 W20       29.84S
HALLOCK        CLEAR     52  41  66 W16G22    29.88S
ROSEAU         MOCLDY    46  43  87 W13G20    29.80S
THIEF RVR FALL CLEAR     48  40  73 W14       29.89
CROOKSTON      PTCLDY    48  43  81 NW14      29.92F
FOSSTON        PTCLDY    46  41  81 W17G23    29.90S
DETROIT LAKES  CLEAR     50  39  66 W17G23    29.94S
MOORHEAD       PTCLDY    52  37  58 W16       29.97S
PARK RAPIDS    CLOUDY    50  42  74 W15       29.88F
MAHNOMEN       FAIR      47  41  79 W14       29.91S
$$
MNZ006-009>011-018-025>026-260900-
   North Central Minnesota

CITY           SKY/WX    TMP DP  RH WIND       PRES   REMARKS
BAUDETTE       RAIN      50  47  89 W20G28    29.73S
FLAG ISLAND    LGT RAIN  52  48  87 NW23G36   29.71S
INTL FALLS     LGT RAIN  50  48  93 W16G26    29.65F
WASKISH        DRIZZLE   50  48  93 W21G32    29.77F
BIG FORK       RAIN      50  46  87 W9G22     29.74S
GRAND RAPIDS   LGT RAIN  49  47  93 W16G25    29.79S
COOK           RAIN      48  48 100 W14       29.67F
WALKER         CLOUDY    49  44  83 W14G21    29.84F
$$
MNZ012-019>021-037-260900-
   Northeast Minnesota

CITY           SKY/WX    TMP DP  RH WIND       PRES   REMARKS
DULUTH         LGT RAIN  50  48  93 W22G31    29.71F
ELY            LGT RAIN  50  48  93 W14       29.62F
HIBBING        LGT RAIN  48  47  96 W16G25    29.71S
EVELETH        LGT RAIN  50  48  92 W18       29.69F
DULUTH HARBOR  LGT RAIN  52  48  87 SW16G23   29.73F
TWO HARBORS    DRIZZLE   54  48  82 W12G18    29.65F
SILVER BAY     CLOUDY    52  48  87 SW5       29.63F
GRAND MARAIS     N/A     55  52  89 W8G20     29.60F
G MARAIS ARPRT CLOUDY    48  45  87 SW7       29.61F FOG
$$
MNZ029>031-032-039>041-046>048-054>057-064-260900-
   West Central Minnesota

CITY           SKY/WX    TMP DP  RH WIND       PRES   REMARKS
FERGUS FALLS   CLEAR     46  39  76 W10       30.00S
MORRIS         CLEAR     50  37  62 W14G20    30.00S
ALEXANDRIA     CLEAR     50  40  68 W15       29.97F
ELBOW LAKE     FAIR      48  39  70 NW12      29.99S
GLENWOOD       CLEAR     48  39  71 W14       29.98S
BENSON         CLEAR     50  37  62 NW13      30.01S
MADISON          N/A     50  39  66 W8        30.06S
WILLMAR        FAIR      50  41  71 W13       30.01S
$$
MNZ033>034-036-042>043-049>051-058-059-260900-
   Central Minnesota

CITY           SKY/WX    TMP DP  RH WIND       PRES   REMARKS
ST CLOUD       CLOUDY    51  45  79 W9        29.93F
SAUK CENTRE    FAIR      49  41  75 W13       29.95F
PAYNESVILLE    MOCLDY    49  41  74 W10       29.97F
AITKIN         MIX PCPN  52  45  76 W7        29.83F
PINE RIVER     CLOUDY    48  48 100 W7        29.89F
BRAINERD       CLOUDY    50  47  89 W12       29.88F
STAPLES        PTCLDY    48  43  81 W10G17    29.90F
LITTLE FALLS   CLOUDY    50  43  76 W6        29.92S
BUFFALO        PTCLDY    52  44  73 SW6       29.96F
MAPLE LAKE     CLOUDY    52  46  79 SW6       29.95F
HUTCHINSON     CLEAR     49  43  78 SW7       30.00F
$$
MNZ037-044-045-052-053-260900-
   East Central Minnesota

CITY           SKY/WX    TMP DP  RH WIND       PRES   REMARKS
PRINCETON        N/A     54  46  76 W8        29.91F
MORA           MOCLDY    50  45  81 W12G18    29.90S
CAMBRIDGE      CLOUDY    55  43  62 W8G16     29.89F
MOOSE LAKE     DRIZZLE   50  45  81 W9G21     29.79S
HINCKLEY       DRIZZLE   52  46  82 W16G25    29.85S
CLOQUET        DRIZZLE   48  46  93 W15G22    29.75F
MCGREGOR       CLOUDY    50  46  87 W12G18    29.82S
$$
MNZ071>073-080-081-089-090-097-098-260900-
   Southwest Minnesota

CITY           SKY/WX    TMP DP  RH WIND       PRES   REMARKS
MONTEVIDEO     CLEAR     52  37  58 NW10G20   30.05S
GRANITE FALLS  CLEAR     52  40  63 W14       30.06S
CANBY          CLEAR     52  37  58 NW15G22   30.08F
MARSHALL       CLEAR     52  36  54 W15       30.07S
REDWOOD FALLS  CLEAR     52  37  56 W14       30.03S
OLIVIA         CLEAR     50  37  62 W12       30.01S
PIPESTONE      CLEAR     46  37  71 W6        30.12F
WINDOM         CLEAR     48  37  66 W9        30.08S
WORTHINGTON    CLEAR     46  38  73 W12       30.12S
JACKSON        CLEAR     50  36  57 W9G18     30.10S
TRACY          CLEAR     51  39  62 W8        30.08S
$$
MNZ065>067-074>077-082>085-091>093-260900-
   South Central Minnesota

CITY           SKY/WX    TMP DP  RH WIND       PRES   REMARKS
MANKATO        CLEAR     52  40  63 W14       30.02S
ST JAMES       CLEAR     54  39  58 W12       30.06S
FAIRMONT       CLEAR     52  39  61 W14       30.07F
GLENCOE        CLEAR     51  45  79 W5        29.98F
FARIBAULT      MOCLDY    52  43  71 W13       30.00S
WASECA         CLEAR     50  41  71 W8        30.03S
ALBERT LEA     CLEAR     52  41  66 W9        30.03S
$$
MNZ078>079-086>088-094>096-260900-
   Southeast Minnesota

CITY           SKY/WX    TMP DP  RH WIND       PRES   REMARKS
ROCHESTER      CLEAR     50  43  77 W13       29.99F
RED WING       MOCLDY    54  45  71 W10       29.94F
STANTON        PTCLDY    52  43  71 W8        29.96F
DODGE CENTER   PTCLDY    48  43  81 W12       29.99F
WINONA         CLEAR     55  43  62 W9G18     29.96F
AUSTIN         CLEAR     52  41  66 W10       30.01F
PRESTON        CLEAR     48  42  77 W9        30.00F
$$
ABBREVIATIONS USED IN REMARKS
   TC - TEMPERATURES IN CELSIUS
  WCI - WIND CHILL INDEX
   HX - HEAT INDEX
  VSB - VISIBILITY
$$




USA.gov is the U.S. government's official web portal to all federal, state and local government web resources and services.